637  
ASUS44 KHUN 010510  
RWRHUN  
 
WEATHER ROUNDUP FOR THE TENNESSEE VALLEY  
NATIONAL WEATHER SERVICE HUNTSVILLE AL  
1200 AM CDT THU JUN 01 2023  
 
ALZ001>004-010600-  
NORTHWEST ALABAMA  
 
CITY SKY/WX TMP DP RH WIND PRES REMARKS
 
BANKHEAD NF N/A 65 63 94 CALM N/A  
SHOALS AIRPORT CLEAR 69 64 84 E3 30.00S  

 
 
ALZ005>007-016-010600-  
NORTH CENTRAL ALABAMA  
 
CITY SKY/WX TMP DP RH WIND PRES REMARKS
 
CULLMAN AG STN N/A 66 N/A N/A CALM N/A  
DECATUR AP CLEAR 68 64 87 E5 30.02S  
HUNTSVILLE AP PTCLDY 69 64 84 SE6 30.02S  
HUN NWS/UAH N/A 71 62 73 SE2 N/A  
MERIDIANVILLE PTCLDY 66 65 96 E3 30.03S  
VINEMONT AP FAIR 70 64 83 CALM 30.04S  

 
 
ALZ008>010-010600-  
NORTHEAST ALABAMA  
 
CITY SKY/WX TMP DP RH WIND PRES REMARKS
 
ALBERTVILLE PTCLDY 68 63 83 CALM 30.05S  
FORT PAYNE MOCLDY 71 62 74 SE5 30.05R  
SCOTTSBORO AP MOCLDY 68 68 100 CALM 30.05R  

 
 
TNZ076-096-097-010600-  
SOUTHEASTERN MIDDLE TENNESSEE  
 
CITY SKY/WX TMP DP RH WIND PRES REMARKS
 
FAYETTEVILLE CLEAR 68 64 88 CALM 30.05S  
TULLAHOMA PTCLDY 70 63 78 CALM 30.03F  
WINCHESTER MOCLDY 70 63 78 CALM 30.03F  

 
   
..SURROUNDING SITES
 
 
 
CITY SKY/WX TMP DP RH WIND PRES REMARKS
 
ATLANTA MOCLDY 67 62 84 E9 30.06F  
ANNISTON PTCLDY 70 63 78 NE6 30.03S  
BIRMINGHAM PTCLDY 73 64 73 SE9 30.03S  
CHATTANOOGA PTCLDY 70 64 81 CALM 30.05S  
CORINTH CLEAR 68 66 94 CALM 29.99S  
DALTON CLOUDY 66 65 96 SW3 30.06S  
GADSDEN PTCLDY 65 65 100 NE3 30.04S  
GOLDEN TRNGL PTCLDY 71 67 87 E5 29.98R  
HALEYVILLE FAIR 64 64 100 CALM 30.05R  
JACKSON TN CLEAR 69 64 84 CALM 29.99S  
LAWRENCEBURG PTCLDY 66 64 94 CALM 30.02S  
LEWISBURG CLEAR 64 64 100 CALM 30.02S  
MEMPHIS CLEAR 77 64 64 SE3 29.97S  
MURFREESBORO MOCLDY 70 64 83 CALM 30.01S  
NASHVILLE PTCLDY 73 64 73 E3 30.03S  
OXFORD MS PTCLDY 70 64 83 CALM 29.99R  
ROME PTCLDY 68 62 81 CALM 30.05R  
SAVANNAH PTCLDY 68 68 100 CALM 29.98F  
SELMER CLEAR 68 64 88 CALM 29.99S  
TUPELO PTCLDY 71 64 78 CALM 29.97S  
TUSCALOOSA PTCLDY 75 66 73 MISG 29.97S  

 
 
 
 
CLICK HERE TO GO TO PREVIOUS BULLETINS.

The Nexlab AL Page
The Nexlab TN Page Main Text Page